Flag for Germany Weather past 2 weeks in Heilbronn, Baden-Württemberg, Germany

39 °F


Feels Like: 39 °F
Forecast: 32 / 40 °F
Wind: 1 mph from Southwest

Location: Oehringen

Current Time: Nov 25, 2015 at 7:39:43 PM

Latest Report: Nov 25, 2015 at 7:00 PM

Visibility: 4 mi

Pressure: 29.76 "Hg

Humidity: 93%

Dew point: 37 °F

Location of HeilbronnLocation

Historic Weather in Heilbronn — Graph


Heilbronn temperature yesterday

Maximum temperature yesterday: 38 °F (at 2:00 PM)
Minimum temperature yesterday: 28 °F (at 7:00 AM)
Average temperature yesterday: 34 °F

Past Weeks' High & Low Weather Summary

High60 °F (Nov 18, 2:00 AM)99% (Nov 20, 4:00 AM)30.44 "Hg (Nov 20, 4:00 AM)
Low28 °F (Nov 24, 7:00 AM)47% (Nov 16, 12:00 PM)29.41 "Hg (Nov 21, 2:00 PM)
Average47 °F79%30.07 "Hg
* Reported Nov 10 6:00 PM — Nov 25 6:00 PM, Heilbronn, Weather by CustomWeather, © 2015

Note: Actual official high and low records may vary slightly from our data, if they occured in-between our weather recording intervals... More about our weather records


Heilbronn weather history for previous 24 hours

Time TempWeatherWind HumidityBarometerVisibility
6:00 PM
Wed, Nov 25
39 °FFog.2 mph94%29.76 "Hg4 mi
5:00 PM39 °FLow clouds.3 mph93%29.76 "Hg6 mi
4:00 PM39 °FLow clouds.3 mph93%29.76 "Hg9 mi
3:00 PM39 °FLow clouds.2 mph96%29.76 "Hg3 mi
2:00 PM38 °FDrizzle. Low clouds.2 mph94%29.77 "Hg7 mi
1:00 PM37 °FRain. Low clouds.3 mph95%29.79 "Hg2 mi
12:00 PM38 °FLight freezing rain. Low clouds.3 mph93%29.80 "Hg6 mi
11:00 AM36 °FDrizzle. Low clouds.2 mph93%29.83 "Hg9 mi
10:00 AM36 °FDrizzle. Low clouds.2 mph94%29.83 "Hg7 mi
9:00 AM36 °FLight rain. Low clouds.1 mph94%29.83 "Hg4 mi
7:00 AM35 °FDrizzle. Overcast.1 mph94%29.84 "Hg6 mi
4:00 AM33 °FLight snow. Overcast.1 mph95%29.87 "Hg1 mi
3:00 AM33 °FLight snow. Overcast.1 mph93%29.89 "Hg1 mi
2:00 AM33 °FLight snow. Overcast.2 mph90%29.90 "Hg2 mi
10:00 PM
Tue, Nov 24
35 °FOvercast.5 mph79%30.01 "Hg13 mi
9:00 PM36 °FLight snow. Overcast.3 mph72%30.04 "Hg9 mi
8:00 PM36 °FOvercast.2 mph73%30.06 "Hg12 mi
7:00 PM35 °FOvercast.2 mph78%30.09 "Hg7 mi
Weather by CustomWeather, © 2015

See weather overviewHow to use our weather pages